Weather History for North Bend, OR

Change the Weather History Date:

Tuesday, July 31, 2012

  Actual Average Record
Temperature  
Mean Temperature 59 °F 59 °F  
Max Temperature 66 °F 65 °F 75 °F (1993)
Min Temperature 52 °F 53 °F 38 °F (1914)
Degree Days  
Heating Degree Days 6 6  
Month to date heating degree days 154 197  
Since 1 June heating degree days 406 464  
Since 1 July heating degree days 154 197  
Growing Degree Days 8 (Base 50)    
Moisture  
Dew Point 54 °F    
Average Humidity 84    
Maximum Humidity 100    
Minimum Humidity 63    
Precipitation  
Precipitation 0.00 in 0.01 in 0.05 in (1964)
Month to date precipitation 0.44 0.50  
Year to date precipitation 28.80 36.62  
Sea Level Pressure  
Sea Level Pressure 30.16 in    
Wind  
Wind Speed 11 mph (North)    
Max Wind Speed 25 mph    
Max Gust Speed 33 mph    
Visibility 9 miles    
Events      
T = Trace of Precipitation, MM = Missing Value Source: NWS Daily Summary

Daily Weather History Graph

Daily Weather History Graph

Search for Another Location

Airport:

Trip Planner

Search our weather history database for the weather conditions in past years. The results will help you decide how hot, cold, wet, or windy it might be!

Date:

Astronomy

Jul. 31, 2012 Rise Set
Actual Time 6:06 AM PDT 8:39 PM PDT
Civil Twilight 5:33 AM PDT 9:12 PM PDT
Nautical Twilight 4:52 AM PDT 9:52 PM PDT
Astronomical Twilight 4:06 AM PDT 10:38 PM PDT
Moon 7:32 PM PDT (7/31) 4:33 AM PDT (7/31)
Length of Visible Light 15h 38m
Length of Day
14h 33m
Waxing Gibbous, 98% of the Moon is Illuminated
Jul 31
Waxing Gibbous
Aug 1
Full
Aug 9
Last Quarter
Aug 17
New
Aug 24
First Quarter

Hourly Weather History & Observations

Time (PDT) Temp. Dew Point Humidity Pressure Visibility Wind Dir Wind Speed Gust Speed Precip Events Conditions
12:15 AM 57.2 °F 55.4 °F 94% 30.13 in 10.0 mi NNW 5.8 mph - N/A   Mostly Cloudy
12:35 AM 57.2 °F 55.4 °F 94% 30.13 in 10.0 mi NNW 5.8 mph - N/A   Overcast
12:55 AM 55.4 °F 53.6 °F 94% 30.13 in 10.0 mi North 5.8 mph - N/A   Overcast
1:15 AM 55.4 °F 53.6 °F 94% 30.13 in 10.0 mi North 4.6 mph - N/A   Overcast
1:35 AM 55.4 °F 53.6 °F 94% 30.13 in 10.0 mi NNW 3.5 mph - N/A   Mostly Cloudy
1:55 AM 55.4 °F 53.6 °F 94% 30.13 in 10.0 mi Calm Calm - N/A   Scattered Clouds
2:15 AM 55.4 °F 53.6 °F 94% 30.13 in 10.0 mi Calm Calm - N/A   Scattered Clouds
2:35 AM 53.6 °F 53.6 °F 100% 30.13 in 10.0 mi Calm Calm - N/A   Scattered Clouds
2:55 AM 53.6 °F 53.6 °F 100% 30.13 in 10.0 mi Calm Calm - N/A   Partly Cloudy
3:15 AM 53.6 °F 53.6 °F 100% 30.13 in 10.0 mi Calm Calm - N/A   Clear
3:35 AM 53.6 °F 53.6 °F 100% 30.13 in 10.0 mi Calm Calm - N/A   Clear
3:55 AM 53.6 °F 53.6 °F 100% 30.13 in 10.0 mi SSE 3.5 mph - N/A   Clear
4:15 AM 51.8 °F 51.8 °F 100% 30.13 in 10.0 mi Calm Calm - N/A   Clear
4:35 AM 53.6 °F 53.6 °F 100% 30.13 in 10.0 mi Calm Calm - N/A   Clear
4:55 AM 51.8 °F 51.8 °F 100% 30.13 in 10.0 mi Calm Calm - N/A   Clear
5:15 AM 51.8 °F 51.8 °F 100% 30.13 in 3.0 mi SE 3.5 mph - N/A   Mostly Cloudy
5:35 AM 51.8 °F 51.8 °F 100% 30.13 in 0.8 mi SSE 4.6 mph - N/A   Overcast
5:55 AM 51.8 °F 51.8 °F 100% 30.14 in 0.5 mi Calm Calm - N/A   Overcast
6:15 AM 51.8 °F 51.8 °F 100% 30.14 in 0.2 mi Calm Calm - N/A   Overcast
6:35 AM 51.8 °F 51.8 °F 100% 30.14 in 0.2 mi Calm Calm - N/A   Overcast
6:55 AM 51.8 °F 51.8 °F 100% 30.14 in 0.2 mi Calm Calm - N/A   Overcast
7:15 AM 53.6 °F 53.6 °F 100% 30.14 in 0.5 mi SE 3.5 mph - N/A   Overcast
7:35 AM 53.6 °F 51.8 °F 94% 30.15 in 0.5 mi SE 3.5 mph - N/A   Overcast
7:55 AM 53.6 °F 51.8 °F 94% 30.15 in 0.5 mi Calm Calm - N/A   Overcast
8:15 AM 53.6 °F 53.6 °F 100% 30.16 in 2.0 mi ESE 3.5 mph - N/A   Mostly Cloudy
8:35 AM 55.4 °F 55.4 °F 100% 30.16 in 2.5 mi Calm Calm - N/A   Scattered Clouds
8:55 AM 57.2 °F 55.4 °F 94% 30.16 in 9.0 mi Calm Calm - N/A   Clear
9:15 AM 60.8 °F 55.4 °F 82% 30.16 in 10.0 mi Calm Calm - N/A   Clear
9:35 AM 62.6 °F 55.4 °F 77% 30.16 in 10.0 mi Calm Calm - N/A   Clear
9:55 AM 62.6 °F 55.4 °F 77% 30.16 in 10.0 mi Calm Calm - N/A   Clear
10:15 AM 64.4 °F 53.6 °F 68% 30.16 in 10.0 mi North 10.4 mph - N/A   Clear
10:35 AM 64.4 °F 53.6 °F 68% 30.16 in 10.0 mi North 17.3 mph - N/A   Clear
10:55 AM 64.4 °F 53.6 °F 68% 30.16 in 10.0 mi North 17.3 mph 24.2 mph N/A   Clear
11:15 AM 64.4 °F 53.6 °F 68% 30.16 in 10.0 mi North 16.1 mph - N/A   Clear
11:35 AM 66.2 °F 53.6 °F 64% 30.16 in 10.0 mi North 16.1 mph 21.9 mph N/A   Clear
11:55 AM 66.2 °F 53.6 °F 64% 30.16 in 10.0 mi North 18.4 mph - N/A   Clear
12:15 PM 66.2 °F 53.6 °F 64% 30.15 in 10.0 mi North 18.4 mph 24.2 mph N/A   Clear
12:35 PM 64.4 °F 53.6 °F 68% 30.15 in 10.0 mi North 19.6 mph 26.5 mph N/A   Clear
12:55 PM 64.4 °F 53.6 °F 68% 30.15 in 10.0 mi North 23.0 mph 29.9 mph N/A   Clear
1:15 PM 64.4 °F 53.6 °F 68% 30.16 in 10.0 mi North 21.9 mph 29.9 mph N/A   Clear
1:35 PM 64.4 °F 53.6 °F 68% 30.16 in 10.0 mi North 23.0 mph 31.1 mph N/A   Clear
1:55 PM 64.4 °F 53.6 °F 68% 30.16 in 10.0 mi North 24.2 mph 33.4 mph N/A   Clear
2:15 PM 64.4 °F 53.6 °F 68% 30.16 in 10.0 mi North 23.0 mph 31.1 mph N/A   Clear
2:35 PM 64.4 °F 53.6 °F 68% 30.16 in 10.0 mi North 21.9 mph 27.6 mph N/A   Clear
2:55 PM 64.4 °F 53.6 °F 68% 30.16 in 10.0 mi North 25.3 mph 31.1 mph N/A   Clear
3:15 PM 64.4 °F 53.6 °F 68% 30.16 in 10.0 mi North 23.0 mph 31.1 mph N/A   Clear
3:35 PM 64.4 °F 53.6 °F 68% 30.16 in 10.0 mi North 24.2 mph 31.1 mph N/A   Clear
3:55 PM 64.4 °F 55.4 °F 73% 30.16 in 10.0 mi North 25.3 mph 29.9 mph N/A   Clear
4:15 PM 64.4 °F 55.4 °F 73% 30.16 in 10.0 mi North 23.0 mph 31.1 mph N/A   Clear
4:35 PM 64.4 °F 55.4 °F 73% 30.16 in 10.0 mi North 21.9 mph 29.9 mph N/A   Clear
4:55 PM 64.4 °F 55.4 °F 73% 30.16 in 10.0 mi North 24.2 mph 29.9 mph N/A   Clear
5:15 PM 64.4 °F 55.4 °F 73% 30.16 in 10.0 mi North 24.2 mph 28.8 mph N/A   Clear
5:35 PM 64.4 °F 55.4 °F 73% 30.16 in 10.0 mi North 19.6 mph 27.6 mph N/A   Clear
5:55 PM 62.6 °F 55.4 °F 77% 30.16 in 10.0 mi North 21.9 mph 26.5 mph N/A   Clear
6:15 PM 62.6 °F 55.4 °F 77% 30.16 in 10.0 mi North 19.6 mph 28.8 mph N/A   Clear
6:35 PM 62.6 °F 55.4 °F 77% 30.16 in 10.0 mi North 19.6 mph 25.3 mph N/A   Clear
6:55 PM 62.6 °F 55.4 °F 77% 30.16 in 10.0 mi North 21.9 mph 29.9 mph N/A   Clear
7:15 PM 62.6 °F 55.4 °F 77% 30.16 in 10.0 mi North 19.6 mph 28.8 mph N/A   Clear
7:35 PM 60.8 °F 55.4 °F 82% 30.16 in 10.0 mi North 19.6 mph 26.5 mph N/A   Clear
7:55 PM 60.8 °F 55.4 °F 82% 30.17 in 10.0 mi North 15.0 mph 20.7 mph N/A   Clear
8:15 PM 60.8 °F 55.4 °F 82% 30.17 in 10.0 mi North 16.1 mph 23.0 mph N/A   Clear
8:35 PM 59.0 °F 55.4 °F 88% 30.18 in 10.0 mi North 12.7 mph - N/A   Mostly Cloudy
9:15 PM 59.0 °F 55.4 °F 88% 30.19 in 10.0 mi North 11.5 mph 18.4 mph N/A   Overcast
9:35 PM 59.0 °F 55.4 °F 88% 30.19 in 10.0 mi North 10.4 mph 16.1 mph N/A   Overcast
9:55 PM 57.2 °F 55.4 °F 94% 30.19 in 10.0 mi North 10.4 mph - N/A   Overcast
10:15 PM 57.2 °F 55.4 °F 94% 30.20 in 10.0 mi North 8.1 mph - N/A   Overcast
10:35 PM 57.2 °F 55.4 °F 94% 30.20 in 10.0 mi North 9.2 mph 19.6 mph N/A   Overcast
10:55 PM 57.2 °F 53.6 °F 88% 30.20 in 10.0 mi North 10.4 mph - N/A   Overcast
11:15 PM 57.2 °F 53.6 °F 88% 30.20 in 10.0 mi North 9.2 mph - N/A   Overcast
11:35 PM 57.2 °F 53.6 °F 88% 30.20 in 10.0 mi North 10.4 mph - N/A   Overcast
11:55 PM 57.2 °F 53.6 °F 88% 30.20 in 10.0 mi North 8.1 mph - N/A   Overcast